[[{"header":{"parameterUnit":"m.s-1","parameterCategory":1,"la1":30.2991,"la2":30.254,"lo1":-89.0895,"lo2":-89.0444,"dy":0.0017,"dx":0.0017,"nx":28,"ny":28,"refTime":"2024-09-25T03:00:00:Z","depth":0,"parameterNumber":2,"parameterNumberName":"U-component_of_WINDS"},"data":[0,0,0,0,0,0,0,0,0,0,0,0,0,0,0,0,0,0,0,0,0,0,0,0,0,0,0,0,0,0,0,0,0,0,0,0,0,0,0,0,0,0,0,0,0,0,0,0,0,0,0,0,0,0,0,0,0,0,-2.8981,-2.8987,0,-2.949,-2.9496,-2.9501,-2.9652,-2.9649,-2.9646,-2.9644,-3.0171,-3.0187,-3.0203,0,0,0,0,0,0,0,0,0,0,0,0,0,-2.8146,-2.816,-2.8981,-2.8987,-2.8993,-2.9489,-2.9496,-2.9503,-2.9652,-2.9649,-2.9646,-2.9642,-3.0165,-3.0185,-3.0205,0,0,0,0,0,0,0,0,0,0,0,0,0,-2.8567,-2.8165,-2.898,-2.9127,-2.9146,-2.9487,-2.9496,-2.9505,-2.9653,-2.9649,-2.9645,-2.9641,-3.0159,-3.0183,-3.0207,-3.0441,0,0,-3.0283,-3.0294,0,0,0,0,0,0,0,0,-2.8543,-2.8597,-2.9099,-2.9118,-2.9139,-2.9503,-2.9395,-2.9819,-2.9654,-2.946,-2.9644,-2.9639,-2.9952,-2.9994,-3.0098,-3.0465,-3.0488,-3.0285,-3.03,-3.0311,-3.0318,0,0,0,0,0,0,0,-2.8513,-2.8576,-2.9182,-2.9107,-2.9131,-2.9171,-2.9226,-2.9476,-2.9723,-2.9477,-2.9489,-2.9547,-2.9962,-3.0074,-3.0112,-3.0496,-3.0285,-3.0307,-3.0322,-3.0332,-3.1083,-3.1088,0,0,0,0,0,0,-2.8458,-2.8551,-2.9166,-2.9198,-2.8825,-2.9189,-2.9251,-2.939,-2.972,-2.9767,-2.955,-2.9552,-3.0034,-3.0083,-3.0131,-3.0429,-3.0311,-3.0334,-3.0348,-3.1078,-3.1085,-3.109,0,0,0,0,0,0,-2.8439,-2.8511,-2.9146,-2.8878,-2.8962,-2.9208,-2.9363,-2.9402,-2.9514,-2.9775,-2.9821,-2.9618,-3.0032,-3.0096,-3.0363,-3.0449,-3.0345,-3.0368,-3.1072,-3.108,-3.1087,-3.1025,0,0,0,0,0,0,-2.8415,-2.8504,-2.8593,-2.8879,-2.8975,-2.9367,-2.9368,-2.9415,-2.9556,-2.9564,-2.9852,-2.9896,-3.0034,-3.0325,-3.0387,-3.0482,-3.0387,-3.1066,-3.1076,-3.1085,-3.1021,-3.103,-3.1037,0,0,0,0,0,-2.8384,-2.8556,-2.8597,-2.8671,-2.9092,-2.9372,-2.9428,-2.9582,-2.9562,-2.9656,-2.9824,-2.9886,-3.0428,-3.0351,-3.0423,-3.0526,-3.1061,-3.1073,-3.1084,-3.1017,-3.1028,-3.1037,0,0,0,0,0,0,-2.8277,-2.8596,-2.8645,-2.8914,-2.9114,-2.9397,-2.952,-2.9588,-2.98,-2.9799,-2.9983,-3.0046,-3.0301,-3.044,-3.0348,-3.077,-3.0747,-3.0773,-3.0671,-3.0684,-3.0692,-3.0656,-3.0408,0,0,0,0,0,-2.8284,-2.8482,-2.8751,-2.8963,-2.9061,-2.9272,-2.94,-2.9501,-2.9717,-2.9803,-2.9991,-3.02,-3.0418,-3.0558,-3.0772,-3.1039,-3.1107,-3.1146,-3.1154,-3.1159,-3.1182,-3.1337,-3.1359,-3.1128,-3.1128,-3.1128,0,0,-2.8302,-2.8501,-2.8616,-2.8946,-2.9114,-2.9318,-2.9343,-2.9557,-2.9712,-2.9837,-3.0101,-3.0245,-3.0491,-3.0759,-3.0887,-3.0883,-3.1259,-3.1174,-3.1176,-3.1197,-3.1351,-3.1372,-3.1392,-3.1136,-3.1134,-3.1133,0,0,-2.8441,-2.8608,-2.8805,-2.8971,-2.9224,-2.9363,-2.9409,-2.9682,-2.9783,-3.005,-3.0149,-3.0335,-3.0705,-3.0878,-3.1013,-3.1215,-3.1282,-3.128,-3.1326,-3.1475,-3.1493,-3.151,-3.1586,-3.1611,-3.13,-3.13,-3.13,0,-2.8433,-2.8742,-2.8898,-2.9108,-2.9252,-2.9371,-2.9574,-2.9728,-3.0038,-3.0136,-3.0125,-3.0594,-3.0768,-3.108,-3.1129,-3.1234,-3.1296,-3.125,-3.1477,-3.1496,-3.1514,-3.1589,-3.1617,-3.1298,-3.1298,-3.1299,-3.1299,0,-2.8721,-2.8934,-2.9062,-2.9357,-2.9515,-2.972,-2.9909,-3.0051,-3.0137,-3.0278,-3.0551,-3.0762,-3.1023,-3.1104,-3.1191,-3.143,-3.142,-3.144,-3.1422,-3.1532,-3.1606,-3.1635,-3.1296,-3.1296,-3.1297,-3.1297,0,0,-2.8811,-2.9187,-2.9232,-2.9368,-2.9654,-2.9824,-3.0034,-3.0287,-3.0407,-3.0616,-3.08,-3.111,-3.1132,-3.1286,-3.1393,-3.1523,-3.1674,-3.1529,-3.1538,-3.1552,-3.1955,-3.194,-3.1971,-3.1718,-3.1724,-3.1729,-3.1936,0,-2.8989,-2.9368,-2.9515,-2.9826,-3.0026,-3.0142,-3.0326,-3.0523,-3.066,-3.0852,-3.1004,-3.1222,-3.1232,-3.1326,-3.1459,-3.1627,-3.1758,-3.1614,-3.1895,-3.1903,-3.1835,-3.2009,-3.1995,-3.218,-3.1965,-3.197,-3.1973,0,-2.9248,-2.9458,-2.9788,-3.0051,-3.0141,-3.0304,-3.0549,-3.0729,-3.0955,-3.1046,-3.1217,-3.1316,-3.1544,-3.1506,-3.1825,-3.1724,-3.1847,-3.1947,-3.1958,-3.1994,-3.1948,-3.2054,-3.2242,-3.2271,-3.202,-3.2016,-3.2013,0,-2.9286,-2.9651,-2.9897,-3.0009,-3.032,-3.0432,-3.0568,-3.0789,-3.0933,-3.1147,-3.1242,-3.148,-3.1611,-3.1794,-3.1956,-3.1913,-3.2261,-3.2236,-3.2347,-3.2343,-3.2419,-3.2413,-3.2634,-3.2489,-3.2489,-3.2488,-3.2488,0,-2.9473,-2.9671,-2.9918,-3.0069,-3.0296,-3.0462,-3.0683,-3.0826,-3.1022,-3.1206,-3.1319,-3.1489,-3.169,-3.1887,-3.2015,-3.2262,-3.2319,-3.2401,-3.2434,-3.2394,-3.2384,-3.2481,-3.2474,-3.2496,-3.2494,-3.2493,-3.2492,0,-2.9555,-2.9727,-3.0004,-3.0274,-3.0347,-3.0503,-3.0737,-3.089,-3.103,-3.1261,-3.1325,-3.1547,-3.1784,-3.1962,-3.227,-3.2356,-3.262,-3.2652,-3.2544,-3.2561,-3.2663,-3.2652,-3.2958,-3.3008,-3.2824,-3.2826,-3.2827,0,-2.9666,-2.9821,-3.0108,-3.0238,-3.0372,-3.0579,-3.0726,-3.0895,-3.1043,-3.1312,-3.1434,-3.1678,-3.1884,-3.2258,-3.2449,-3.2685,-3.2726,-3.2817,-3.2763,-3.2719,-3.2734,-3.2724,-3.2742,-3.2826,-3.2827,-3.2828,-3.2828,0,-2.9845,-2.9922,-3.0127,-3.0363,-3.0533,-3.0728,-3.0924,-3.1024,-3.1229,-3.139,-3.1633,-3.1792,-3.2106,-3.2349,-3.2605,-3.2747,-3.2824,-3.2843,-3.2882,-3.2846,-3.2778,-3.282,-3.2569,-3.2837,-3.2836,-3.2835,-3.2835,-3.2834,-2.9949,-3.0093,-3.0318,-3.0543,-3.0707,-3.0888,-3.1046,-3.1205,-3.141,-3.1677,-3.1765,-3.2017,-3.2241,-3.2591,-3.2736,-3.2937,-3.2938,-3.2993,-3.3008,-3.302,-3.3019,-3.2741,-3.2984,-3.2984,-3.2984,-3.2984,-3.2984,0,-3.0138,-3.0287,-3.0492,-3.0762,-3.094,-3.0992,-3.1212,-3.1358,-3.1578,-3.1778,-3.1977,-3.2258,-3.2494,-3.2701,-3.2947,-3.3069,-3.311,-3.3128,-3.3124,-3.3156,-3.3003,-3.2947,-3.3091,-3.3091,-3.3091,-3.3091,-3.309,-3.309,-3.0258,-3.0505,-3.0609,-3.094,-3.1089,-3.1335,-3.1457,-3.1625,-3.1786,-3.2094,-3.2289,-3.2422,-3.2627,-3.2888,-3.3108,-3.3163,-3.3251,-3.3261,-3.3325,-3.3179,-3.3166,-3.3154,-3.3102,-3.3277,-3.3277,-3.3462,-3.3464,-3.3465]},{"header":{"parameterUnit":"m.s-1","parameterCategory":1,"la1":30.2991,"la2":30.254,"lo1":-89.0895,"lo2":-89.0444,"dy":0.0017,"dx":0.0017,"nx":28,"ny":28,"refTime":"2024-09-25T03:00:00:Z","depth":0,"parameterNumber":3,"parameterNumberName":"V-component_of_WINDS"},"data":[0,0,0,0,0,0,0,0,0,0,0,0,0,0,0,0,0,0,0,0,0,0,0,0,0,0,0,0,0,0,0,0,0,0,0,0,0,0,0,0,0,0,0,0,0,0,0,0,0,0,0,0,0,0,0,0,0,0,-1.304,-1.304,0,-1.3031,-1.3031,-1.3031,-1.3088,-1.309,-1.3091,-1.3093,-1.3087,-1.3085,-1.3084,0,0,0,0,0,0,0,0,0,0,0,0,0,-1.311,-1.3108,-1.304,-1.304,-1.304,-1.3031,-1.3031,-1.3031,-1.3088,-1.309,-1.3092,-1.3093,-1.3088,-1.3086,-1.3084,0,0,0,0,0,0,0,0,0,0,0,0,0,-1.3088,-1.3107,-1.304,-1.3067,-1.3069,-1.3031,-1.3031,-1.3031,-1.3087,-1.309,-1.3092,-1.3094,-1.3088,-1.3086,-1.3083,-1.302,0,0,-1.3076,-1.3075,0,0,0,0,0,0,0,0,-1.3089,-1.3085,-1.3063,-1.3065,-1.3068,-1.3063,-1.3054,-1.3028,-1.3087,-1.3081,-1.3093,-1.3096,-1.3077,-1.3076,-1.3069,-1.302,-1.302,-1.3076,-1.3074,-1.3073,-1.3072,0,0,0,0,0,0,0,-1.3091,-1.3086,-1.3037,-1.3063,-1.3065,-1.3081,-1.308,-1.3049,-1.3066,-1.3081,-1.3085,-1.3083,-1.3079,-1.3071,-1.3069,-1.302,-1.3076,-1.3074,-1.3072,-1.3071,-1.292,-1.2918,0,0,0,0,0,0,-1.3088,-1.3087,-1.3037,-1.3036,-1.3084,-1.3078,-1.3077,-1.3062,-1.3066,-1.3069,-1.3081,-1.3086,-1.3074,-1.3072,-1.3069,-1.2998,-1.3073,-1.3071,-1.3069,-1.2923,-1.292,-1.2917,0,0,0,0,0,0,-1.3089,-1.3083,-1.3037,-1.3063,-1.3058,-1.3074,-1.3057,-1.3061,-1.3053,-1.3066,-1.307,-1.307,-1.3076,-1.3073,-1.3032,-1.2998,-1.307,-1.3067,-1.2926,-1.2922,-1.2918,-1.2852,0,0,0,0,0,0,-1.3091,-1.3083,-1.3058,-1.3062,-1.3056,-1.2999,-1.3054,-1.3059,-1.3048,-1.3054,-1.3057,-1.306,-1.3078,-1.3036,-1.303,-1.2996,-1.3066,-1.2929,-1.2924,-1.292,-1.2858,-1.2847,-1.2837,0,0,0,0,0,-1.3093,-1.304,-1.3057,-1.305,-1.3026,-1.2997,-1.2994,-1.3015,-1.3045,-1.3022,-1.303,-1.3059,-1.3002,-1.3031,-1.3025,-1.299,-1.2931,-1.2926,-1.292,-1.2862,-1.2849,-1.2838,0,0,0,0,0,0,-1.3034,-1.3041,-1.306,-1.3006,-1.3,-1.3007,-1.2977,-1.3,-1.2987,-1.2993,-1.3021,-1.3021,-1.2977,-1.2979,-1.3011,-1.293,-1.2972,-1.2965,-1.293,-1.2918,-1.2908,-1.2909,-1.3064,0,0,0,0,0,-1.3014,-1.2988,-1.2997,-1.2949,-1.2945,-1.2961,-1.295,-1.2966,-1.2962,-1.296,-1.2966,-1.2962,-1.2943,-1.293,-1.2914,-1.2858,-1.286,-1.2831,-1.282,-1.2812,-1.2806,-1.2779,-1.2767,-1.2898,-1.2899,-1.2899,0,0,-1.2974,-1.2975,-1.2957,-1.2937,-1.2935,-1.291,-1.2959,-1.293,-1.2912,-1.2956,-1.2919,-1.2922,-1.292,-1.2871,-1.285,-1.2872,-1.277,-1.2805,-1.2798,-1.2797,-1.2772,-1.2759,-1.2748,-1.2895,-1.2895,-1.2896,0,0,-1.2888,-1.2885,-1.2846,-1.2842,-1.2837,-1.2848,-1.2839,-1.2842,-1.2846,-1.2808,-1.2841,-1.282,-1.2787,-1.2784,-1.2778,-1.2691,-1.2719,-1.2685,-1.2633,-1.2606,-1.2596,-1.2587,-1.2558,-1.2547,-1.2679,-1.2679,-1.2679,0,-1.2839,-1.2801,-1.2823,-1.2792,-1.2783,-1.282,-1.2782,-1.2777,-1.2768,-1.2762,-1.2785,-1.2745,-1.2745,-1.2698,-1.2677,-1.267,-1.2662,-1.2686,-1.2595,-1.2586,-1.2578,-1.2551,-1.254,-1.2675,-1.2675,-1.2676,-1.2676,0,-1.2743,-1.2716,-1.2685,-1.2674,-1.2661,-1.2626,-1.2644,-1.2629,-1.2646,-1.2655,-1.2617,-1.2619,-1.2604,-1.2594,-1.2611,-1.2549,-1.2563,-1.259,-1.2634,-1.2562,-1.2537,-1.2526,-1.2669,-1.2671,-1.2672,-1.2673,0,0,-1.2621,-1.2622,-1.2611,-1.2607,-1.2604,-1.2585,-1.2552,-1.2537,-1.2524,-1.2516,-1.2491,-1.2461,-1.2487,-1.248,-1.2497,-1.2473,-1.2407,-1.2504,-1.2504,-1.2488,-1.2341,-1.2322,-1.231,-1.2424,-1.2422,-1.242,-1.2342,0,-1.254,-1.2483,-1.2502,-1.2445,-1.2422,-1.2457,-1.2429,-1.2425,-1.2432,-1.2415,-1.2423,-1.2403,-1.2437,-1.2433,-1.2411,-1.2419,-1.2378,-1.2425,-1.2403,-1.2402,-1.2405,-1.2296,-1.2276,-1.2203,-1.2332,-1.2331,-1.2329,0,-1.2437,-1.2425,-1.2366,-1.2368,-1.2359,-1.2333,-1.2321,-1.2303,-1.23,-1.2307,-1.2299,-1.2321,-1.2291,-1.2332,-1.2292,-1.2323,-1.2315,-1.2318,-1.2316,-1.2316,-1.2363,-1.2297,-1.2179,-1.2169,-1.2314,-1.2315,-1.2316,0,-1.2358,-1.2326,-1.2287,-1.2282,-1.2283,-1.2265,-1.2264,-1.2263,-1.2253,-1.2242,-1.2237,-1.2222,-1.2215,-1.2205,-1.2223,-1.2251,-1.2181,-1.2223,-1.2188,-1.2187,-1.2173,-1.2175,-1.2056,-1.2164,-1.2164,-1.2164,-1.2164,0,-1.2267,-1.223,-1.2252,-1.2228,-1.2188,-1.221,-1.217,-1.2174,-1.2172,-1.2151,-1.218,-1.2159,-1.2184,-1.2166,-1.218,-1.2146,-1.2142,-1.2148,-1.2152,-1.2147,-1.2146,-1.2143,-1.215,-1.2161,-1.2162,-1.2162,-1.2163,0,-1.2173,-1.2185,-1.2146,-1.2149,-1.2149,-1.212,-1.2124,-1.2103,-1.2112,-1.2084,-1.2079,-1.2093,-1.2074,-1.209,-1.2072,-1.2081,-1.2036,-1.2047,-1.2037,-1.2041,-1.2005,-1.2009,-1.1883,-1.1868,-1.1983,-1.1982,-1.1981,0,-1.2115,-1.2088,-1.2088,-1.2076,-1.2073,-1.2052,-1.2042,-1.2062,-1.205,-1.2044,-1.2024,-1.2006,-1.1994,-1.1961,-1.1971,-1.1957,-1.1969,-1.1925,-1.1967,-1.1963,-1.1971,-1.1974,-1.1972,-1.1918,-1.1917,-1.1915,-1.1915,0,-1.2013,-1.202,-1.2004,-1.1989,-1.1975,-1.1965,-1.1957,-1.1945,-1.1965,-1.195,-1.193,-1.192,-1.1901,-1.1884,-1.1873,-1.1874,-1.1898,-1.1901,-1.1892,-1.1887,-1.1884,-1.1887,-1.2017,-1.1904,-1.1905,-1.1906,-1.1907,-1.1907,-1.1938,-1.1915,-1.1912,-1.1893,-1.1888,-1.188,-1.1861,-1.1866,-1.185,-1.1835,-1.1847,-1.1824,-1.1822,-1.1809,-1.1807,-1.179,-1.1808,-1.1795,-1.1792,-1.1789,-1.1785,-1.1884,-1.1787,-1.1788,-1.1788,-1.1788,-1.1788,0,-1.1839,-1.1838,-1.182,-1.1807,-1.1792,-1.1814,-1.1806,-1.1792,-1.1771,-1.1766,-1.1753,-1.173,-1.1714,-1.1721,-1.1707,-1.1691,-1.1702,-1.1687,-1.169,-1.169,-1.1768,-1.1778,-1.1679,-1.1679,-1.1679,-1.1679,-1.1679,-1.1679,-1.1786,-1.175,-1.1757,-1.1719,-1.1719,-1.1695,-1.1689,-1.1682,-1.1679,-1.1652,-1.1638,-1.1642,-1.1642,-1.1628,-1.1615,-1.1617,-1.1612,-1.1593,-1.16,-1.1674,-1.1685,-1.1695,-1.1705,-1.1591,-1.1591,-1.1524,-1.1523,-1.1523]}]]